Hourly Weather Ryabcevo

Today, 11 April, Sunday

Time Temperature Precipitation Wind Pressure Humidity
00:00 +4°C° 0 mm 4 mps 750 mmHg 71%
01:00 +3°C° 0 mm 4 mps 750 mmHg 73%
02:00 +3°C° 0 mm 3 mps 751 mmHg 75%
03:00 +2°C° 0 mm 3 mps 751 mmHg 77%
04:00 +2°C° 0 mm 3 mps 751 mmHg 79%
05:00 +2°C° 0 mm 3 mps 751 mmHg 81%
06:00 +3°C° 0 mm 3 mps 751 mmHg 76%
07:00 +5°C° 0 mm 3 mps 752 mmHg 70%
08:00 +6°C° 0 mm 4 mps 752 mmHg 64%
09:00 +8°C° 0 mm 4 mps 753 mmHg 59%
10:00 +11°C° 0 mm 4 mps 753 mmHg 55%
11:00 +13°C° 0 mm 5 mps 753 mmHg 50%
12:00 +13°C° 0 mm 5 mps 753 mmHg 49%
13:00 +14°C° 0 mm 4 mps 753 mmHg 47%
14:00 +15°C° 0 mm 4 mps 753 mmHg 46%
15:00 +14°C° 0 mm 4 mps 753 mmHg 48%
16:00 +14°C° 0 mm 3 mps 754 mmHg 50%
17:00 +14°C° 0 mm 3 mps 754 mmHg 52%
18:00 +12°C° 0 mm 3 mps 754 mmHg 57%
19:00 +11°C° 0 mm 3 mps 754 mmHg 62%
20:00 +9°C° 0 mm 3 mps 755 mmHg 67%
21:00 +8°C° 0 mm 2 mps 755 mmHg 69%
22:00 +8°C° 0 mm 2 mps 755 mmHg 70%
23:00 +7°C° 0 mm 2 mps 755 mmHg 72%

Tomorrow, 12 April, Monday

Time Temperature Precipitation Wind Pressure Humidity
00:00 +7°C° 0 mm 2 mps 755 mmHg 74%
01:00 +6°C° 0 mm 2 mps 755 mmHg 75%
02:00 +6°C° 0 mm 2 mps 755 mmHg 77%
03:00 +5°C° 0 mm 2 mps 755 mmHg 77%
04:00 +5°C° 0 mm 2 mps 755 mmHg 78%
05:00 +4°C° 0 mm 2 mps 755 mmHg 79%
06:00 +5°C° 0 mm 3 mps 755 mmHg 73%
07:00 +7°C° 0 mm 3 mps 755 mmHg 67%
08:00 +9°C° 0 mm 3 mps 755 mmHg 61%
09:00 +10°C° 0 mm 4 mps 754 mmHg 55%
10:00 +12°C° 0 mm 4 mps 754 mmHg 49%
11:00 +13°C° 0 mm 4 mps 753 mmHg 42%
12:00 +13°C° 0 mm 5 mps 753 mmHg 42%
13:00 +14°C° 0 mm 5 mps 752 mmHg 41%
14:00 +14°C° 0 mm 5 mps 752 mmHg 41%
15:00 +13°C° 0 mm 5 mps 752 mmHg 50%
16:00 +12°C° 0 mm 4 mps 751 mmHg 59%
17:00 +10°C° 0 mm 4 mps 751 mmHg 69%
18:00 +10°C° 0.4 mm 4 mps 751 mmHg 77%
19:00 +9°C° 0.4 mm 3 mps 751 mmHg 84%
20:00 +8°C° 0.4 mm 3 mps 751 mmHg 92%
21:00 +8°C° 0 mm 3 mps 751 mmHg 92%
22:00 +8°C° 0 mm 2 mps 750 mmHg 92%
23:00 +8°C° 0 mm 2 mps 750 mmHg 92%

Day after tomorrow, 13 April, Tuesday

Time Temperature Precipitation Wind Pressure Humidity
00:00 +9°C° 0.1 mm 1 mps 750 mmHg 92%
01:00 +9°C° 0.1 mm 1 mps 750 mmHg 93%
02:00 +9°C° 0.1 mm 1 mps 750 mmHg 93%
03:00 +9°C° 0.1 mm 1 mps 749 mmHg 94%
04:00 +9°C° 0.1 mm 1 mps 749 mmHg 94%
05:00 +9°C° 0.1 mm 1 mps 749 mmHg 94%
06:00 +9°C° 0 mm 1 mps 749 mmHg 94%
07:00 +9°C° 0 mm 1 mps 749 mmHg 93%
08:00 +9°C° 0 mm 2 mps 749 mmHg 93%
09:00 +10°C° 0 mm 2 mps 749 mmHg 86%
10:00 +13°C° 0 mm 2 mps 748 mmHg 80%
11:00 +14°C° 0 mm 3 mps 748 mmHg 73%
12:00 +16°C° 0 mm 3 mps 748 mmHg 70%
13:00 +16°C° 0 mm 3 mps 748 mmHg 67%
14:00 +17°C° 0 mm 3 mps 748 mmHg 63%
15:00 +16°C° 0.1 mm 3 mps 747 mmHg 68%
16:00 +15°C° 0.1 mm 2 mps 747 mmHg 74%
17:00 +14°C° 0.1 mm 1 mps 747 mmHg 79%
18:00 +14°C° 0.1 mm 1 mps 747 mmHg 82%
19:00 +13°C° 0.1 mm 2 mps 747 mmHg 86%
20:00 +13°C° 0.1 mm 2 mps 747 mmHg 89%
21:00 +12°C° 0.2 mm 2 mps 747 mmHg 90%
22:00 +12°C° 0.2 mm 2 mps 747 mmHg 91%
23:00 +12°C° 0.2 mm 2 mps 747 mmHg 93%

14 April, Wednesday

Time Temperature Precipitation Wind Pressure Humidity
00:00 +12°C° 0.1 mm 2 mps 746 mmHg 93%
01:00 +12°C° 0.1 mm 2 mps 746 mmHg 93%
02:00 +12°C° 0.1 mm 2 mps 746 mmHg 93%
03:00 +10°C° 0 mm 2 mps 746 mmHg 93%
04:00 +10°C° 0 mm 2 mps 746 mmHg 94%
05:00 +9°C° 0 mm 2 mps 746 mmHg 94%
06:00 +10°C° 0 mm 3 mps 746 mmHg 90%
07:00 +11°C° 0 mm 3 mps 746 mmHg 85%
08:00 +12°C° 0 mm 4 mps 746 mmHg 80%
09:00 +12°C° 0 mm 3 mps 746 mmHg 80%
10:00 +12°C° 0 mm 3 mps 746 mmHg 79%
11:00 +13°C° 0 mm 3 mps 746 mmHg 79%
12:00 +14°C° 0 mm 2 mps 746 mmHg 77%
13:00 +15°C° 0 mm 2 mps 746 mmHg 74%
14:00 +15°C° 0 mm 2 mps 746 mmHg 72%
15:00 +15°C° 0.2 mm 2 mps 746 mmHg 74%
16:00 +14°C° 0.2 mm 1 mps 746 mmHg 76%
17:00 +14°C° 0.2 mm 1 mps 745 mmHg 77%
18:00 +14°C° 0.1 mm 1 mps 745 mmHg 80%
19:00 +13°C° 0.1 mm 1 mps 746 mmHg 83%
20:00 +12°C° 0.1 mm 1 mps 746 mmHg 86%
21:00 +12°C° 0.1 mm 1 mps 745 mmHg 88%
22:00 +12°C° 0.1 mm 1 mps 745 mmHg 89%
23:00 +11°C° 0.1 mm 1 mps 745 mmHg 91%

15 April, Thursday

Time Temperature Precipitation Wind Pressure Humidity
00:00 +11°C° 0.1 mm 1 mps 745 mmHg 91%
01:00 +11°C° 0.1 mm 1 mps 745 mmHg 92%
02:00 +10°C° 0.1 mm 1 mps 745 mmHg 93%
03:00 +10°C° 0.2 mm 1 mps 745 mmHg 93%
04:00 +10°C° 0.2 mm 1 mps 745 mmHg 94%
05:00 +10°C° 0.2 mm 1 mps 745 mmHg 95%
06:00 +10°C° 0.4 mm 1 mps 745 mmHg 94%
07:00 +10°C° 0.4 mm 2 mps 745 mmHg 93%
08:00 +10°C° 0.4 mm 2 mps 745 mmHg 93%
09:00 +12°C° 0.2 mm 2 mps 745 mmHg 86%
10:00 +13°C° 0.2 mm 2 mps 745 mmHg 79%
11:00 +14°C° 0.2 mm 3 mps 745 mmHg 72%
12:00 +14°C° 0.4 mm 3 mps 745 mmHg 70%
13:00 +14°C° 0.4 mm 3 mps 745 mmHg 68%
14:00 +14°C° 0.4 mm 3 mps 745 mmHg 66%
15:00 +14°C° 0.6 mm 4 mps 745 mmHg 70%
16:00 +13°C° 0.6 mm 4 mps 745 mmHg 75%
17:00 +12°C° 0.6 mm 5 mps 745 mmHg 79%
18:00 +10°C° 0.2 mm 5 mps 745 mmHg 81%
19:00 +8°C° 0.2 mm 6 mps 745 mmHg 83%
20:00 +6°C° 0.2 mm 7 mps 746 mmHg 85%
21:00 +5°C° 0 mm 7 mps 746 mmHg 84%
22:00 +5°C° 0 mm 7 mps 746 mmHg 83%
23:00 +4°C° 0 mm 8 mps 746 mmHg 82%

16 April, Friday

Time Temperature Precipitation Wind Pressure Humidity
00:00 +4°C° 0 mm 8 mps 746 mmHg 81%
01:00 +2°C° 0 mm 8 mps 747 mmHg 80%
02:00 +2°C° 0 mm 8 mps 747 mmHg 80%
03:00 +2°C° 0 mm 8 mps 747 mmHg 79%
04:00 +1°C° 0 mm 8 mps 747 mmHg 78%
05:00 +1°C° 0 mm 8 mps 747 mmHg 77%
06:00 +1°C° 0 mm 8 mps 748 mmHg 73%
07:00 +1°C° 0 mm 8 mps 748 mmHg 70%
08:00 +1°C° 0 mm 8 mps 749 mmHg 66%
09:00 +4°C° 0 mm 8 mps 749 mmHg 60%
10:00 +5°C° 0 mm 9 mps 750 mmHg 55%
11:00 +6°C° 0 mm 9 mps 750 mmHg 49%
12:00 +6°C° 0 mm 9 mps 750 mmHg 46%
13:00 +7°C° 0 mm 9 mps 750 mmHg 44%
14:00 +7°C° 0 mm 8 mps 751 mmHg 41%
15:00 +7°C° 0 mm 8 mps 751 mmHg 41%
16:00 +6°C° 0 mm 7 mps 751 mmHg 42%
17:00 +6°C° 0 mm 7 mps 752 mmHg 42%
18:00 +5°C° 0 mm 7 mps 753 mmHg 46%
19:00 +4°C° 0 mm 6 mps 753 mmHg 49%
20:00 +2°C° 0 mm 6 mps 754 mmHg 52%
21:00 +2°C° 0 mm 5 mps 754 mmHg 55%
22:00 +1°C° 0 mm 5 mps 755 mmHg 59%
23:00 0°C° 0 mm 5 mps 755 mmHg 62%
Show more